Location: Newark
(5.5500°N, 0.2500°W)
Time: 02:28:39
(UTC+00:00)

Hubble Space Telescope - Pass Details

Date: 26 September 2019
Orbit: 536 x 540 km, 28.5° (Epoch: 20 October)

Event Time Altitude Azimuth Distance (km) Brightness Sun altitude
Rises 18:48:49 0° 251° (WSW) 2,671 5.8 -14.2°
Reaches altitude 10° 18:51:08 10° 256° (WSW) 1,779 4.7 -14.8°
Maximum altitude 18:55:06 48° 331° (NNW) 703 1.5 -15.7°
Enters shadow 18:57:47 19° 39° (NE) 1,305 2.4 -16.4°
